User: anonymous   Login
Location: Unspecified
(0.0000°N, 0.0000°E)
Time: 19:56:55
(UTC+01:00)
Language:

Cosmos 1833 Rocket - Orbit

View from above orbital plane
View from above orbital plane
View from above satellite
View from above satellite

Ground track
Ground track

The orbit data is extracted from the following two-line orbital elements,

1 17590U 87027B   16045.46635308  .00000242  00000-0  14506-3 0  9994
2 17590  71.0027  99.0773 0006565 310.8977  49.1577 14.16717990494907
Epoch (UTC): 14 February 2016 11:11:32
Eccentricity: 0.0006565
inclination: 71.0027°
perigee height: 832 km
apogee height: 841 km
right ascension of ascending node: 99.0773°
argument of perigee: 310.8977°
revolutions per day: 14.16717990
mean anomaly at epoch: 49.1577°
orbit number at epoch: 49490

The dashed part of the orbit path shows where the satellite is in the earth's shadow,  

DLR